Wind_Speed
63 63 63 62 58 58 57 57 51 53 49 46 47 40 40 40 41 39 37 37 36 35 35 34 33 31 30 30 30 30 31 33 37 53 57 51 53 54 63 59 61 61 56
60 61 64 62 59 58 59 57 56 56 51 52 51 44 43 43 45 44 43 42 41 41 40 40 39 38 37 36 35 35 35 35 35 35 37 42 48 55 57 64 59 63 67
66 64 64 63 61 61 60 59 60 59 58 57 53 48 47 47 48 49 48 47 47 46 46 45 44 44 43 43 41 41 41 42 41 40 39 39 41 41 51 60 65 67 67
74 73 68 67 66 66 65 64 64 64 62 59 55 52 50 51 51 52 53 52 52 52 51 51 50 50 50 50 50 49 49 49 49 48 48 46 47 46 46 48 50 52 54
70 71 73 71 71 69 67 68 68 67 65 61 58 56 54 54 55 55 56 56 57 57 57 57 56 56 56 56 55 56 56 56 56 56 55 55 55 55 54 55 56 55 56
66 69 72 72 73 71 69 69 69 69 68 64 61 58 57 57 58 59 60 60 60 61 62 62 62 62 62 61 61 61 61 61 62 62 62 62 62 62 62 63 63 64 64
64 66 71 74 73 72 69 69 69 69 70 68 66 64 62 61 61 61 63 64 65 66 65 66 66 67 67 67 67 67 66 66 67 67 67 68 68 68 68 69 70 71 72
68 70 71 74 75 75 71 67 69 70 70 70 71 70 68 66 66 66 67 67 68 69 70 71 71 71 71 72 72 72 72 73 73 73 73 74 74 74 74 74 74 76 78
70 69 69 72 74 76 76 75 70 69 72 73 74 74 73 73 72 71 71 72 73 74 74 74 75 77 77 77 78 78 79 79 80 80 80 80 80 80 81 81 81 80 81
73 72 71 70 73 75 76 78 77 72 71 73 76 77 77 77 77 76 77 78 77 78 80 80 80 81 82 82 84 85 86 87 87 88 88 88 88 88 89 89 89 89 89
77 77 75 73 73 75 77 78 79 79 77 75 77 79 79 79 80 80 81 82 82 84 85 86 86 86 88 89 90 91 92 93 93 94 94 95 95 95 96 96 97 97 97
79 78 78 76 75 75 77 79 80 82 81 79 78 80 81 82 84 84 86 87 89 89 90 91 91 92 93 94 94 95 96 98 100 101 102 103 103 103 104 104 105 104 104
83 82 80 78 76 77 78 80 82 83 84 87 85 84 84 86 88 89 90 92 93 95 96 97 97 98 99 99 100 101 102 104 105 106 107 107 109 110 110 111 112 112 112
83 83 83 81 80 80 81 82 84 86 86 86 87 88 90 91 92 93 94 95 97 98 100 101 102 102 103 104 104 105 107 109 110 111 112 113 114 115 116 116 117 117 118
81 82 83 83 84 84 85 85 86 88 89 91 92 94 94 95 97 98 99 101 102 103 104 105 107 108 109 109 109 110 111 113 115 116 116 117 118 119 121 122 123 123 124
73 77 81 84 85 86 86 88 89 91 92 93 95 97 98 99 100 102 104 106 107 109 110 111 113 114 115 116 117 117 118 120 122 123 124 126 127 127 128 129 129 129 130
72 77 79 81 82 84 86 88 90 92 94 96 98 101 103 105 106 108 109 111 113 115 116 117 118 120 122 123 124 124 125 126 128 129 130 131 132 133 135 137 137 137 138
72 75 76 78 80 82 83 84 87 90 92 95 98 102 105 107 109 112 114 116 118 119 121 123 124 126 128 130 131 131 131 132 134 135 136 137 138 140 141 143 143 143 144
72 74 77 78 81 83 85 87 89 91 93 95 98 100 103 105 108 110 113 115 117 120 122 124 126 128 131 133 135 137 138 139 141 142 143 144 144 147 147 147 148 148 149
74 76 79 82 85 87 88 90 92 93 96 100 102 105 108 110 113 115 118 120 122 125 127 130 132 134 136 138 140 142 142 143 146 147 149 150 151 153 154 154 155 154 155
77 79 80 83 85 88 90 93 94 97 100 103 106 108 110 113 115 118 121 124 126 128 131 132 135 137 139 141 144 146 146 147 149 150 153 154 156 157 158 160 161 161 162
82 84 86 87 88 91 93 95 96 99 101 104 107 109 112 115 118 120 124 127 130 132 135 137 139 143 145 147 150 152 153 155 155 156 158 159 160 162 162 162 163 162 161
89 90 92 93 95 97 99 101 103 105 108 111 114 117 120 123 126 129 132 135 138 140 142 145 147 149 151 152 153 155 154 153 152 150 149 150 149 149 149 148 149 149 149
95 96 98 99 101 103 105 108 111 113 115 119 122 125 128 131 133 135 137 138 140 140 141 141 141 140 139 139 141 140 140 138 138 138 138 138 137 137 138 139 140 141 140
99 100 102 105 107 109 110 113 117 119 121 123 125 127 128 129 130 129 129 128 128 127 128 128 128 128 128 130 131 130 131 131 131 130 129 128 127 127 127 128 129 129 129
101 103 105 106 109 110 110 111 113 116 118 120 119 118 118 118 118 118 120 121 120 121 121 121 120 119 118 120 122 123 122 122 123 124 122 121 120 121 120 120 121 121 122
Wind_Direction
242 244 242 242 244 247 249 244 250 249 252 253 256 256 253 246 239 235 233 233 233 234 236 237 236 234 232 231 234 237 239 241 239 240 245 246 242 237 238 240 237 236 238
239 240 243 238 240 245 242 244 247 245 249 253 252 249 248 243 240 236 235 235 236 237 237 238 239 238 237 236 235 237 240 242 242 243 244 244 245 243 242 239 241 242 242
238 240 239 239 239 240 240 241 243 246 248 248 247 245 245 241 241 239 238 238 239 239 241 242 242 243 243 242 242 242 242 244 246 247 247 247 247 244 244 246 245 249 246
241 240 238 238 238 240 242 240 245 245 244 245 244 242 243 241 240 240 240 240 241 242 243 243 244 244 244 245 244 243 243 244 246 246 247 248 249 251 249 245 245 247 248
238 238 238 235 235 238 242 242 241 242 243 243 242 242 242 242 241 241 242 243 243 244 244 245 246 247 248 248 248 247 246 246 245 246 248 248 249 249 249 251 253 251 251
235 237 237 237 237 237 240 243 243 243 243 242 242 242 243 243 244 243 244 244 245 246 247 247 248 249 249 250 250 250 250 250 249 248 247 248 249 250 251 251 251 252 254
235 236 238 240 238 239 240 243 244 245 244 242 242 243 244 244 245 246 246 247 247 247 248 249 250 250 251 253 253 254 254 254 254 254 253 252 251 252 253 252 253 253 253
237 235 235 238 238 237 237 241 244 246 246 246 245 244 245 244 246 247 247 248 249 250 250 250 251 251 252 253 253 254 254 255 255 255 255 255 254 254 253 254 255 257 257
237 237 238 238 241 240 240 240 241 245 247 248 248 248 248 248 248 248 248 249 249 250 251 252 252 252 252 253 253 254 254 255 255 255 255 255 255 255 255 254 254 255 256
239 239 240 241 241 241 243 244 242 243 247 250 250 250 250 251 252 252 252 251 251 252 252 252 253 253 254 254 254 254 254 254 254 254 255 255 255 256 256 256 255 255 255
238 239 241 243 242 241 242 243 244 244 245 248 251 251 252 253 254 254 255 255 255 255 255 255 256 257 257 257 257 257 257 257 257 256 256 256 256 256 256 256 256 256 256
240 240 242 243 244 243 244 245 246 246 246 248 251 253 254 255 255 256 257 257 257 257 258 258 258 258 259 259 259 260 260 261 261 260 260 259 259 259 258 258 258 257 257
240 241 243 245 245 246 245 245 247 248 248 249 250 252 254 255 257 258 259 259 259 259 259 259 260 260 261 261 261 261 262 262 262 263 263 263 263 262 262 262 261 261 260
239 241 242 243 244 245 246 246 246 247 248 250 252 253 254 255 256 257 258 259 260 260 261 261 262 262 263 263 263 263 264 265 265 265 265 265 265 264 264 264 263 263 263
238 241 242 243 244 246 247 247 248 249 250 251 252 253 254 255 257 258 259 260 261 262 263 263 264 264 264 264 265 265 266 266 266 266 266 266 266 266 266 265 265 265 264
241 241 242 244 246 248 249 249 250 250 251 252 253 255 256 258 259 260 261 262 262 263 264 265 265 266 266 266 266 266 266 266 266 266 265 265 265 265 265 265 265 265 265
241 243 246 247 249 250 252 253 254 254 255 255 256 257 258 259 260 261 262 263 264 264 265 266 267 267 267 268 268 268 268 268 268 268 268 267 267 267 266 266 266 266 265
243 246 248 250 251 253 255 256 256 257 258 259 259 260 260 261 262 263 264 265 266 266 267 267 268 268 269 269 270 270 270 270 270 270 270 270 270 269 269 268 268 268 267
245 247 249 250 251 252 254 255 257 259 260 262 263 264 265 266 266 267 267 268 268 269 269 270 270 270 271 271 272 272 272 273 273 273 273 272 272 272 272 272 272 271 271
248 249 250 251 252 253 255 256 258 259 260 261 262 263 264 265 266 267 268 268 269 269 270 270 271 271 271 271 272 272 272 273 273 273 272 272 272 271 272 272 272 272 271
251 251 252 253 254 255 256 256 258 259 260 261 262 263 264 265 266 267 267 267 268 268 269 270 270 270 270 271 271 271 271 271 271 272 272 272 272 272 272 271 271 271 271
256 258 260 261 262 263 263 263 263 264 265 265 266 267 268 268 269 270 270 271 271 271 272 272 272 272 273 273 273 273 274 274 274 273 273 273 273 272 272 272 272 272 271
257 260 261 263 265 267 268 268 269 270 270 271 272 273 273 274 274 274 274 274 274 274 275 275 275 275 275 276 276 275 275 275 274 274 273 273 273 273 274 274 273 273 273
259 261 263 265 266 267 269 269 270 272 273 273 274 274 275 275 276 276 276 277 276 276 277 277 277 277 276 276 276 276 276 276 275 275 274 274 274 274 274 274 273 273 273
261 262 264 265 267 269 270 271 272 274 275 276 276 277 278 279 280 280 280 280 280 279 279 278 278 278 278 278 278 277 277 277 276 275 275 275 275 274 274 274 274 274 274
262 264 266 268 270 272 273 274 275 276 276 278 280 280 280 280 281 281 281 281 281 280 280 280 279 279 279 279 279 279 278 278 278 278 278 277 277 276 276 276 275 275 274
Height
10616 10622 10628 10634 10639 10643 10646 10649 10651 10653 10655 10657 10658 10659 10661 10663 10665 10667 10670 10673 10676 10679 10680 10682 10684 10685 10686 10688 10690 10691 10692 10693 10694 10697 10701 10703 10704 10707 10711 10714 10717 10720 10721
10603 10609 10615 10621 10626 10630 10634 10638 10639 10641 10644 10647 10648 10649 10652 10653 10656 10659 10661 10664 10667 10670 10672 10674 10676 10678 10679 10681 10683 10683 10685 10686 10687 10689 10691 10692 10694 10697 10699 10703 10705 10708 10709
10590 10597 10602 10607 10612 10617 10622 10625 10627 10629 10632 10634 10636 10639 10641 10643 10645 10648 10651 10654 10657 10659 10662 10664 10666 10668 10670 10672 10674 10676 10677 10678 10679 10681 10683 10684 10684 10687 10688 10690 10693 10695 10696
10576 10581 10587 10592 10598 10603 10607 10611 10615 10617 10619 10621 10624 10627 10629 10632 10634 10637 10640 10643 10645 10648 10651 10653 10655 10657 10659 10661 10663 10665 10667 10668 10668 10670 10672 10674 10674 10676 10677 10678 10681 10681 10683
10561 10566 10571 10577 10581 10587 10592 10596 10600 10603 10605 10608 10611 10614 10617 10620 10622 10625 10628 10631 10633 10636 10638 10641 10643 10645 10647 10649 10651 10653 10655 10656 10657 10659 10660 10662 10663 10664 10666 10667 10668 10669 10670
10545 10550 10555 10561 10566 10571 10576 10582 10586 10589 10592 10595 10598 10601 10604 10607 10610 10612 10614 10617 10620 10622 10624 10627 10629 10631 10633 10635 10637 10639 10640 10642 10643 10645 10647 10648 10649 10649 10652 10653 10654 10654 10655
10529 10535 10540 10546 10551 10556 10561 10567 10571 10575 10578 10582 10585 10588 10590 10594 10596 10598 10601 10603 10605 10608 10610 10612 10614 10616 10618 10619 10621 10623 10624 10626 10627 10628 10630 10632 10634 10634 10636 10637 10637 10638 10638
10513 10518 10523 10528 10534 10540 10545 10551 10556 10560 10564 10568 10571 10574 10577 10579 10581 10583 10585 10587 10590 10592 10594 10596 10598 10600 10601 10603 10604 10606 10607 10608 10609 10611 10612 10613 10615 10617 10619 10620 10621 10619 10618
10497 10503 10510 10516 10520 10526 10531 10536 10540 10545 10549 10552 10556 10559 10561 10564 10565 10567 10569 10571 10573 10575 10577 10578 10580 10581 10583 10584 10586 10587 10588 10589 10590 10591 10592 10593 10594 10596 10598 10600 10602 10603 10601
10483 10489 10495 10501 10507 10512 10517 10521 10525 10529 10533 10536 10539 10542 10545 10546 10548 10550 10552 10554 10555 10556 10558 10559 10560 10561 10562 10564 10565 10566 10567 10568 10569 10569 10571 10572 10573 10574 10576 10577 10578 10580 10582
10468 10474 10479 10484 10490 10494 10499 10504 10508 10512 10516 10518 10521 10524 10526 10527 10529 10531 10533 10535 10536 10537 10538 10539 10540 10540 10541 10542 10543 10544 10544 10544 10545 10546 10547 10548 10549 10550 10551 10552 10553 10554 10557
10452 10458 10463 10469 10474 10479 10483 10487 10491 10494 10497 10500 10502 10504 10506 10508 10509 10510 10512 10513 10513 10514 10515 10516 10517 10517 10518 10519 10520 10520 10520 10520 10520 10521 10521 10522 10522 10523 10524 10524 10525 10527 10528
10436 10442 10448 10454 10458 10462 10465 10469 10472 10474 10477 10480 10482 10483 10485 10486 10488 10489 10490 10490 10490 10490 10490 10491 10492 10493 10493 10494 10495 10495 10494 10493 10492 10492 10493 10493 10493 10493 10493 10493 10494 10495 10497
10418 10424 10430 10435 10439 10442 10445 10448 10451 10454 10456 10458 10461 10463 10464 10465 10465 10465 10465 10466 10465 10465 10465 10466 10466 10467 10467 10468 10468 10468 10466 10465 10464 10464 10464 10463 10462 10460 10459 10459 10459 10460 10461
10402 10407 10411 10415 10419 10422 10426 10429 10432 10435 10437 10439 10440 10441 10441 10441 10441 10442 10442 10442 10441 10441 10441 10440 10439 10438 10439 10440 10440 10440 10439 10436 10433 10432 10432 10430 10428 10426 10424 10423 10422 10423 10424
10384 10388 10392 10396 10400 10404 10406 10409 10412 10414 10416 10417 10417 10418 10419 10419 10419 10418 10418 10417 10415 10414 10413 10412 10411 10410 10408 10408 10407 10408 10407 10403 10399 10398 10396 10395 10393 10390 10387 10385 10386 10386 10385
10368 10371 10376 10380 10384 10386 10388 10390 10391 10393 10395 10396 10395 10395 10395 10394 10392 10391 10390 10388 10387 10386 10384 10383 10381 10378 10375 10374 10371 10371 10371 10366 10361 10360 10358 10356 10354 10351 10348 10343 10345 10346 10344
10355 10358 10361 10364 10365 10366 10369 10370 10369 10371 10372 10371 10369 10368 10367 10367 10366 10364 10363 10361 10358 10356 10354 10351 10348 10343 10338 10336 10333 10331 10330 10327 10322 10319 10317 10315 10310 10306 10305 10300 10300 10301 10299
10341 10343 10345 10346 10345 10346 10348 10348 10347 10349 10349 10346 10345 10343 10341 10339 10337 10335 10332 10329 10327 10323 10319 10314 10310 10307 10300 10296 10292 10289 10288 10286 10280 10276 10273 10269 10266 10257 10255 10254 10251 10250 10248
10324 10324 10325 10325 10325 10326 10327 10328 10328 10329 10324 10320 10317 10315 10313 10311 10307 10304 10300 10296 10293 10288 10283 10278 10273 10268 10263 10254 10250 10246 10246 10244 10236 10230 10225 10220 10217 10210 10204 10202 10199 10199 10194
10302 10304 10305 10306 10305 10305 10305 10306 10307 10303 10298 10294 10291 10288 10285 10282 10278 10273 10266 10261 10256 10253 10246 10242 10234 10229 10222 10215 10207 10202 10201 10196 10192 10186 10178 10172 10166 10161 10157 10151 10148 10145 10143
10282 10282 10282 10283 10282 10281 10280 10280 10279 10277 10273 10268 10263 10259 10254 10249 10244 10239 10230 10224 10218 10212 10205 10201 10195 10184 10177 10171 10162 10155 10149 10144 10141 10135 10126 10120 10113 10105 10101 10096 10091 10087 10087
10261 10261 10260 10260 10258 10255 10253 10251 10250 10247 10241 10236 10231 10226 10219 10212 10205 10199 10192 10185 10177 10170 10164 10155 10148 10139 10129 10122 10112 10103 10100 10091 10082 10078 10072 10065 10060 10055 10050 10044 10035 10031 10027
10240 10240 10239 10238 10233 10231 10229 10224 10221 10216 10211 10205 10197 10189 10182 10173 10166 10159 10151 10143 10134 10126 10117 10108 10099 10091 10082 10071 10058 10053 10046 10041 10034 10027 10022 10019 10016 10011 10002 9995 9986 9981 9978
10217 10216 10214 10211 10208 10206 10204 10199 10192 10186 10179 10171 10162 10153 10145 10136 10127 10117 10106 10097 10088 10079 10070 10060 10052 10046 10040 10025 10014 10006 9998 9990 9982 9978 9974 9971 9968 9965 9958 9950 9945 9938 9934
10193 10191 10188 10184 10181 10179 10175 10169 10163 10155 10147 10137 10129 10119 10110 10099 10089 10080 10068 10053 10046 10036 10026 10018 10011 10005 9997 9984 9967 9959 9953 9948 9940 9931 9929 9926 9924 9918 9914 9910 9902 9898 9891